Location: Big Spring
(34.7791°N, 106.3894°W)
Time: 08:14:03
(UTC+00:00)

Daily predictions for brighter satellites

Satellite Brightness Start Highest point End
(mag) Time Altitude Azimuth Time Altitude Azimuth Time Altitude Azimuth
STARLINK-1035 3.8 12:00:11 11° SW 12:04:09 71° SE 12:08:17 10° NE
Cosmos 1092 Rocket 4.4 12:00:50 10° S 12:07:07 70° E 12:13:25 10° NNE
Cosmos 2219 Rocket 3.2 12:03:27 10° NW 12:07:36 22° W 12:11:44 10° SSW
STARLINK-1032 3.7 12:04:58 10° SW 12:09:06 79° SE 12:13:14 10° NE
Meteor 1-31 Rocket 3.1 12:06:11 10° N 12:09:56 44° WNW 12:13:40 10° SSW
STARLINK-1011 3.6 12:09:57 10° SW 12:14:04 88° SE 12:18:14 10° NE
Meteor 1-12 Rocket 4.4 12:10:44 10° N 12:16:45 88° E 12:22:39 10° S
Cosmos 1980 3.8 12:11:34 10° NNW 12:17:04 53° WSW 12:22:31 10° S
NOSS 3-2 (C) 3.3 12:12:03 10° SW 12:17:37 76° WNW 12:23:52 10° NNE
STARLINK-1036 3.6 12:14:55 10° SW 12:19:03 83° NW 12:23:12 10° NE
ASTRO E2 3.1 12:18:30 11° WSW 12:22:11 52° S 12:26:03 10° ESE
Meteor PRIRODA 3.7 12:20:22 10° N 12:23:56 53° WNW 12:27:28 10° SSW
STARLINK-1044 3.6 12:19:53 10° SW 12:24:01 75° NW 12:28:09 10° NE
CENTAUR R/B 2.4 12:19:19 10° SSW 12:24:57 84° WNW 12:31:35 10° NNE
STARLINK-1027 3.7 12:21:51 10° SW 12:26:04 67° NW 12:30:18 10° NE
SKYMED 2 3.7 12:21:55 10° SSE 12:26:14 83° ENE 12:30:36 10° N
Meteor 1-4 Rocket 2.6 12:24:59 10° SSW 12:28:40 66° W 12:32:25 10° N
Cosmos 2082 4.0 12:23:14 10° SW 12:28:44 51° WNW 12:34:18 10° N
STARLINK-1047 3.7 12:24:52 10° SW 12:28:59 67° NW 12:33:06 10° NE
SeaSat 1 3.8 12:25:53 10° SSW 12:29:13 18° WSW 12:32:34 10° WNW
Cosmos 2333 Rocket 3.8 12:27:27 10° WNW 12:29:32 12° W 12:31:36 10° WSW
SL-16 R/B 2.9 12:24:45 10° NNW 12:30:22 62° ENE 12:35:57 10° SSE
Cosmos 2026 Rocket 4.2 12:24:38 10° S 12:30:47 78° E 12:36:54 10° N
Cosmos 1300 Rocket 3.6 12:26:46 10° NNW 12:30:59 55° W 12:35:10 10° S
STARLINK-1037 3.7 12:27:05 10° SW 12:31:11 64° NW 12:35:18 10° NE
Nadezhda 4 Rocket 4.4 12:25:26 10° SSW 12:31:23 44° W 12:37:24 10° N
Cosmos 1975 4.3 12:32:22 10° NW 12:35:06 18° W 12:37:51 10° SW
